| time (UTC) | temp C | wind direction | speed KPH | gust KPH | rain 1hr cm | rain 24hr cm | rain mn cm | humidity % | barometer mb |
| 20260902033020 | 32 | 148 | 0.0 | 4.8 | 0.00 | 0.00 | 0.00 | 50 | 991.9 |
| 20260902031520 | 33 | 109 | 1.6 | 4.8 | 0.00 | 0.00 | 0.00 | 49 | 991.7 |
| 20260902030021 | 33 | 110 | 1.6 | 6.4 | 0.00 | 0.00 | 0.00 | 48 | 991.5 |
| 20260902024520 | 33 | 108 | 1.6 | 3.2 | 0.00 | 0.00 | 0.00 | 48 | 991.3 |
| 20260902023018 | 33 | 112 | 1.6 | 4.8 | 0.00 | 0.00 | 0.00 | 47 | 991.0 |
| 20260902021518 | 33 | 110 | 1.6 | 4.8 | 0.00 | 0.00 | 0.00 | 46 | 990.9 |
| 20260902020019 | 34 | 108 | 1.6 | 4.8 | 0.00 | 0.00 | 0.00 | 46 | 990.7 |
| 20260902014518 | 34 | 102 | 1.6 | 4.8 | 0.00 | 0.00 | 0.00 | 45 | 990.5 |
| 20260902013016 | 34 | 113 | 1.6 | 4.8 | 0.00 | 0.00 | 0.00 | 44 | 990.3 |
| 20260902011519 | 35 | 113 | 1.6 | 4.8 | 0.00 | 0.00 | 0.00 | 43 | 990.2 |
| 20260902010017 | 35 | 91 | 1.6 | 9.7 | 0.00 | 0.00 | 0.00 | 42 | 990.1 |
| 20260902004514 | 35 | 99 | 3.2 | 6.4 | 0.00 | 0.00 | 0.00 | 41 | 990.2 |
| 20260902003013 | 35 | 102 | 3.2 | 9.7 | 0.00 | 0.00 | 0.00 | 41 | 990.2 |
| 20260902001511 | 36 | 174 | 0.0 | 8.0 | 0.00 | 0.00 | 0.00 | 41 | 990.2 |
| 20260902000013 | 36 | 176 | 1.6 | 11.3 | 0.00 | 0.00 | 0.00 | 41 | 990.3 |
| 20260901234510 | 36 | 127 | 1.6 | 11.3 | 0.00 | 0.00 | 0.00 | 40 | 990.5 |
| 20260901233008 | 37 | 135 | 4.8 | 16.1 | 0.00 | 0.00 | 0.00 | 38 | 990.5 |
| 20260901231510 | 37 | 122 | 4.8 | 12.9 | 0.00 | 0.00 | 0.00 | 38 | 990.5 |
| 20260901230005 | 37 | 145 | 6.4 | 9.7 | 0.00 | 0.00 | 0.00 | 38 | 990.5 |
| 20260901224504 | 37 | 83 | 1.6 | 8.0 | 0.00 | 0.00 | 0.00 | 37 | 990.6 |
| 20260901223002 | 37 | 114 | 1.6 | 11.3 | 0.00 | 0.00 | 0.00 | 38 | 990.6 |
| 20260901221616 | 38 | 96 | 4.8 | 16.1 | 0.00 | 0.00 | 0.00 | 37 | 990.6 |
| 20260901220113 | 37 | 187 | 6.4 | 12.9 | 0.00 | 0.00 | 0.00 | 37 | 990.7 |
| 20260901214557 | 37 | 103 | 3.2 | 14.5 | 0.00 | 0.00 | 0.00 | 38 | 990.9 |
| 20260901213053 | 37 | 77 | 1.6 | 19.3 | 0.00 | 0.00 | 0.00 | 35 | 990.9 |
| 20260901211551 | 38 | 1 | 3.2 | 11.3 | 0.00 | 0.00 | 0.00 | 34 | 991.0 |
| 20260901210048 | 38 | 113 | 6.4 | 14.5 | 0.00 | 0.00 | 0.00 | 36 | 991.2 |
| 20260901204546 | 37 | 222 | 4.8 | 11.3 | 0.00 | 0.00 | 0.00 | 38 | 991.4 |
| 20260901203045 | 37 | 83 | 6.4 | 16.1 | 0.00 | 0.00 | 0.00 | 38 | 991.5 |
| 20260901201539 | 37 | 19 | 4.8 | 11.3 | 0.00 | 0.00 | 0.00 | 38 | 991.8 |
| 20260901200040 | 37 | 117 | 4.8 | 11.3 | 0.00 | 0.00 | 0.00 | 40 | 992.0 |
| 20260901194534 | 37 | 180 | 4.8 | 11.3 | 0.00 | 0.00 | 0.00 | 40 | 992.2 |
| 20260901184523 | 36 | 200 | 3.2 | 14.5 | 0.00 | 0.00 | 0.00 | 44 | 993.0 |
| 20260901183023 | 35 | 210 | 3.2 | 11.3 | 0.00 | 0.00 | 0.00 | 45 | 993.3 |
| 20260901181523 | 36 | 86 | 4.8 | 17.7 | 0.00 | 0.00 | 0.00 | 45 | 993.5 |
| 20260901180018 | 35 | 118 | 1.6 | 6.4 | 0.00 | 0.00 | 0.00 | 47 | 993.7 |
| 20260901174515 | 35 | 226 | 3.2 | 11.3 | 0.00 | 0.00 | 0.00 | 46 | 993.9 |
| 20260901173019 | 35 | 130 | 3.2 | 11.3 | 0.00 | 0.00 | 0.00 | 46 | 994.1 |
| 20260901171514 | 34 | 142 | 4.8 | 12.9 | 0.00 | 0.00 | 0.00 | 48 | 994.3 |
| 20260901170005 | 34 | 287 | 3.2 | 9.7 | 0.00 | 0.00 | 0.00 | 50 | 994.6 |
| 20260901164511 | 33 | 264 | 3.2 | 8.0 | 0.00 | 0.00 | 0.00 | 50 | 994.8 |
| 20260901163100 | 33 | 207 | 1.6 | 11.3 | 0.00 | 0.00 | 0.00 | 51 | 994.9 |
| 20260901161609 | 32 | 78 | 1.6 | 8.0 | 0.00 | 0.00 | 0.00 | 52 | 994.8 |
| 20260901160107 | 32 | 340 | 1.6 | 9.7 | 0.00 | 0.00 | 0.00 | 54 | 994.9 |
| 20260901154558 | 32 | 113 | 1.6 | 6.4 | 0.00 | 0.00 | 0.00 | 55 | 994.8 |
| 20260901153053 | 32 | 238 | 3.2 | 8.0 | 0.00 | 0.00 | 0.00 | 56 | 994.8 |
| 20260901151545 | 31 | 196 | 1.6 | 8.0 | 0.00 | 0.00 | 0.00 | 58 | 994.7 |
| 20260901150043 | 31 | 215 | 3.2 | 8.0 | 0.00 | 0.00 | 0.00 | 59 | 994.7 |
| 20260901144546 | 30 | 127 | 3.2 | 8.0 | 0.00 | 0.00 | 0.00 | 61 | 994.9 |
| 20260901143045 | 30 | 203 | 3.2 | 9.7 | 0.00 | 0.00 | 0.00 | 62 | 994.9 |
| 20260901141541 | 30 | 123 | 0.0 | 6.4 | 0.00 | 0.00 | 0.00 | 63 | 994.9 |
| 20260901140030 | 29 | 156 | 0.0 | 8.0 | 0.00 | 0.00 | 0.00 | 65 | 995.0 |
| 20260901134528 | 28 | 84 | 1.6 | 8.0 | 0.00 | 0.00 | 0.00 | 67 | 995.0 |
| 20260901133025 | 28 | 98 | 1.6 | 4.8 | 0.00 | 0.00 | 0.00 | 69 | 994.9 |
| 20260901131526 | 27 | 122 | 0.0 | 3.2 | 0.00 | 0.00 | 0.00 | 71 | 994.8 |
| 20260901130025 | 27 | 226 | 0.0 | 1.6 | 0.00 | 0.00 | 0.00 | 71 | 994.6 |
| 20260901124519 | 27 | 226 | 0.0 | 0.0 | 0.00 | 0.00 | 0.00 | 71 | 994.3 |
| 20260901123014 | 27 | 226 | 0.0 | 0.0 | 0.00 | 0.00 | 0.00 | 70 | 994.1 |
| 20260901121512 | 27 | 226 | 0.0 | 0.0 | 0.00 | 0.00 | 0.00 | 68 | 994.0 |
| 20260901120009 | 27 | 94 | 0.0 | 4.8 | 0.00 | 0.00 | 0.00 | 68 | 994.0 |
| 20260901114510 | 27 | 197 | 0.0 | 3.2 | 0.00 | 0.00 | 0.00 | 68 | 993.9 |
| 20260901113008 | 27 | 197 | 0.0 | 3.2 | 0.00 | 0.00 | 0.00 | 67 | 993.8 |
| 20260901111505 | 28 | 197 | 0.0 | 1.6 | 0.00 | 0.00 | 0.00 | 67 | 993.5 |
| 20260901110004 | 28 | 197 | 0.0 | 1.6 | 0.00 | 0.00 | 0.00 | 66 | 993.5 |
| 20260901104506 | 28 | 197 | 0.0 | 1.6 | 0.00 | 0.00 | 0.00 | 66 | 993.4 |
| 20260901103002 | 28 | 197 | 0.0 | 0.0 | 0.00 | 0.00 | 0.00 | 66 | 993.4 |
| 20260901101604 | 28 | 197 | 0.0 | 3.2 | 0.00 | 0.00 | 0.00 | 65 | 993.4 |
| 20260901100104 | 28 | 245 | 0.0 | 1.6 | 0.00 | 0.00 | 0.00 | 64 | 993.5 |
| 20260901094557 | 28 | 218 | 0.0 | 6.4 | 0.00 | 0.00 | 0.00 | 63 | 993.4 |
| 20260901093101 | 29 | 213 | 1.6 | 6.4 | 0.00 | 0.00 | 0.00 | 63 | 993.5 |
| 20260901091555 | 29 | 214 | 0.0 | 4.8 | 0.00 | 0.00 | 0.00 | 61 | 993.6 |
| 20260901090054 | 29 | 215 | 0.0 | 4.8 | 0.00 | 0.00 | 0.00 | 60 | 993.6 |
| 20260901084554 | 29 | 174 | 1.6 | 8.0 | 0.00 | 0.00 | 0.00 | 58 | 993.5 |
| 20260901083051 | 29 | 86 | 3.2 | 8.0 | 0.00 | 0.00 | 0.00 | 57 | 993.4 |
| 20260901081552 | 29 | 146 | 0.0 | 8.0 | 0.00 | 0.00 | 0.00 | 57 | 993.4 |
| 20260901080049 | 29 | 92 | 0.0 | 3.2 | 0.00 | 0.00 | 0.00 | 56 | 993.3 |
| 20260901074548 | 29 | 101 | 0.0 | 3.2 | 0.00 | 0.00 | 0.00 | 56 | 993.3 |
| 20260901073054 | 29 | 101 | 0.0 | 4.8 | 0.00 | 0.00 | 0.00 | 55 | 993.3 |
| 20260901071545 | 29 | 94 | 0.0 | 6.4 | 0.00 | 0.00 | 0.00 | 55 | 993.2 |
| 20260901070053 | 29 | 148 | 1.6 | 6.4 | 0.00 | 0.00 | 0.00 | 55 | 993.1 |
| 20260901064543 | 28 | 133 | 1.6 | 4.8 | 0.00 | 0.00 | 0.00 | 55 | 993.0 |
| 20260901063042 | 28 | 104 | 0.0 | 3.2 | 0.00 | 0.00 | 0.00 | 55 | 993.0 |
| 20260901061541 | 28 | 104 | 0.0 | 0.0 | 0.00 | 0.00 | 0.00 | 56 | 992.9 |
| 20260901060037 | 28 | 104 | 0.0 | 0.0 | 0.00 | 0.00 | 0.00 | 55 | 992.7 |
| 20260901054536 | 28 | 104 | 0.0 | 1.6 | 0.00 | 0.00 | 0.00 | 54 | 992.6 |
| 20260901053036 | 29 | 104 | 0.0 | 1.6 | 0.00 | 0.00 | 0.00 | 54 | 992.4 |
| 20260901051531 | 29 | 104 | 0.0 | 0.0 | 0.00 | 0.00 | 0.00 | 53 | 992.2 |
| 20260901050028 | 30 | 104 | 0.0 | 0.0 | 0.00 | 0.00 | 0.00 | 52 | 992.0 |
| 20260901044541 | 30 | 104 | 0.0 | 0.0 | 0.00 | 0.00 | 0.00 | 51 | 991.9 |
| 20260901043028 | 30 | 104 | 0.0 | 0.0 | 0.00 | 0.00 | 0.00 | 50 | 991.9 |
| 20260901041531 | 31 | 104 | 0.0 | 0.0 | 0.00 | 0.00 | 0.00 | 48 | 992.0 |
| 20260901040032 | 31 | 104 | 0.0 | 0.0 | 0.00 | 0.00 | 0.00 | 47 | 992.1 |
| 20260901034533 | 31 | 104 | 0.0 | 1.6 | 0.00 | 0.00 | 0.00 | 45 | 992.0 |